Location: Angwan Shehu
(11.2514°N, 7.4613°E)
Time: 13:46:29
(UTC+00:00)

S-56A Canister/Altair - Visible Passes

Search period start: 23 April 2021 00:00
Search period end: 03 May 2021 00:00
Orbit: 632 x 2500 km, 38.9° (Epoch: 23 April)

Date Brightness Start Highest point End Pass type
(mag) Time Alt. Az. Time Alt. Az. Time Alt. Az.
23 Apr 8.0 04:43:14 10° NW 04:47:33 55° NE 04:52:38 10° ESE visible
23 Apr 9.8 19:36:22 10° WSW 19:49:33 58° NW 19:58:20 11° NE visible
23 Apr 10.9 21:49:51 10° WNW 21:55:13 15° NNW 21:55:52 15° NNW visible
24 Apr 8.4 04:10:53 10° NNW 04:15:03 41° NE 04:19:38 10° ESE visible
24 Apr 9.8 19:02:19 10° WSW 19:16:18 66° NW 19:26:07 10° NE visible
24 Apr 10.8 21:14:47 10° WNW 21:22:06 19° NNW 21:26:09 14° N visible
25 Apr 8.8 03:38:32 10° NNW 03:42:31 31° NE 03:46:37 10° E visible
25 Apr 9.8 18:28:22 10° SW 18:42:59 76° NW 18:53:30 10° NE visible
25 Apr 10.8 20:39:55 10° W 20:48:56 24° NW 20:55:48 10° NNE visible
26 Apr 9.2 03:08:18 20° N 03:09:57 24° NE 03:13:37 10° E visible
26 Apr 9.9 17:54:32 10° SW 18:09:35 85° NW 18:20:47 10° NE visible
26 Apr 10.8 20:05:12 10° W 20:15:42 29° NW 20:23:36 10° NNE visible
27 Apr 9.7 02:38:27 18° NE 02:38:27 18° NE 02:40:35 10° E visible
27 Apr 7.7 04:36:57 10° WNW 04:41:02 37° SW 04:45:33 10° SSE visible
27 Apr 10.8 19:30:37 10° W 19:42:26 34° NW 19:51:16 10° NNE visible
28 Apr 7.3 04:06:11 24° WNW 04:08:33 49° SW 04:13:03 10° SE visible
28 Apr 10.7 18:56:10 10° W 19:09:04 40° NW 19:18:49 10° NNE visible
28 Apr 11.2 21:12:27 10° NW 21:16:20 12° NNW 21:19:47 10° N visible
29 Apr 7.1 03:36:25 64° S 03:36:25 64° S 03:40:32 10° SE visible
29 Apr 10.7 18:21:52 10° WSW 18:35:39 46° NW 18:46:15 10° NNE visible
29 Apr 11.1 20:36:51 10° WNW 20:42:58 15° NNW 20:48:06 10° N visible
30 Apr 9.1 03:06:37 20° SE 03:06:37 20° SE 03:08:01 10° SE visible
30 Apr 10.7 17:47:42 10° WSW 18:02:09 52° NW 18:13:35 10° NE visible
30 Apr 11.1 20:01:36 10° WNW 20:09:33 18° NNW 20:16:03 10° NNE visible
01 May 11.2 19:26:33 10° WNW 19:36:03 22° NNW 19:43:46 10° NNE visible
02 May 11.2 18:51:40 10° W 19:02:31 25° NNW 19:11:20 10° NNE visible
02 May 11.2 21:10:31 10° NNW 21:11:26 10° N 21:12:20 10° N visible
